Greensboro, GA

5:59 PM EDT on October 01, 2016 (GMT -0400)
Greensboro

Weather History for K3J7 - December, 2013

Change the Weather History Date:

Monday, December 2, 2013

  Actual Average (KDBN) Record (KDBN)
Temperature  
Mean Temperature 49 °F -  
Max Temperature 57 °F 61 °F 80 °F (1982)
Min Temperature 41 °F 38 °F 20 °F (1976)
Degree Days  
Heating Degree Days 16    
Moisture  
Dew Point 45 °F    
Average Humidity 88    
Maximum Humidity 100    
Minimum Humidity 67    
Precipitation  
Precipitation 0.00 in - - ()
Sea Level Pressure  
Sea Level Pressure 29.89 in    
Wind  
Wind Speed 1 mph (WSW)    
Max Wind Speed 6 mph    
Max Gust Speed -    
Visibility 8 miles    
Events Rain    
Averages and records for this station are not official NWS values.
T = Trace of Precipitation, MM = Missing Value Source: NWS Daily Summary

Daily Weather History Graph

Daily Weather History Graph

Search for Another Location

Airport or City:

Trip Planner

Search our weather history database for the weather conditions in past years. The results will help you decide how hot, cold, wet, or windy it might be!

Date:

Astronomy

Dec. 02, 2013 Rise Set
Actual Time 7:19 AM EST 5:24 PM EST
Civil Twilight 6:52 AM EST 5:51 PM EST
Nautical Twilight 6:21 AM EST 6:22 PM EST
Astronomical Twilight 5:51 AM EST 6:52 PM EST
Moon 6:45 AM EST (12/2) 5:24 PM EST (12/2)
Length of Visible Light 10h 58m
Length of Day
10h 04m
Waning Crescent, 0% of the Moon is Illuminated
Dec 2
Waning Crescent
Dec 2
New
Dec 9
First Quarter
Dec 17
Full
Dec 25
Last Quarter

Hourly Weather History & Observations

Time (EST) Temp. Windchill Dew Point Humidity Pressure Visibility Wind Dir Wind Speed Gust Speed Precip Events Conditions
12:15 AM 46.4 °F - 42.8 °F 87% 29.99 in 10.0 mi Calm Calm - N/A   Clear
12:35 AM 44.6 °F - 42.8 °F 93% 29.98 in 10.0 mi Calm Calm - N/A   Clear
12:55 AM 44.6 °F - 42.8 °F 93% 29.98 in 10.0 mi Calm Calm - N/A   Clear
1:15 AM 44.6 °F - 42.8 °F 93% 29.97 in 10.0 mi Calm Calm - N/A   Clear
1:35 AM 44.6 °F 43.1 °F 42.8 °F 93% 29.97 in 10.0 mi WSW 3.5 mph - N/A   Clear
1:55 AM 44.6 °F - 42.8 °F 93% 29.96 in 10.0 mi Calm Calm - N/A   Clear
2:15 AM 44.6 °F - 42.8 °F 93% 29.95 in 10.0 mi Calm Calm - N/A   Clear
2:35 AM 44.6 °F - 42.8 °F 93% 29.95 in 10.0 mi Calm Calm - N/A   Clear
2:55 AM 44.6 °F - 42.8 °F 93% 29.95 in 10.0 mi Calm Calm - N/A   Clear
3:15 AM 44.6 °F 43.1 °F 42.8 °F 93% 29.96 in 10.0 mi WSW 3.5 mph - N/A   Scattered Clouds
3:35 AM 44.6 °F - 42.8 °F 93% 29.95 in 10.0 mi Calm Calm - N/A   Scattered Clouds
3:55 AM 44.6 °F - 42.8 °F 93% 29.94 in 10.0 mi Calm Calm - N/A   Mostly Cloudy
4:15 AM 44.6 °F - 41.0 °F 87% 29.94 in 10.0 mi Calm Calm - N/A   Scattered Clouds
4:35 AM 44.6 °F - 41.0 °F 87% 29.93 in 10.0 mi Calm Calm - N/A   Clear
4:55 AM 44.6 °F - 41.0 °F 87% 29.92 in 10.0 mi Calm Calm - N/A   Clear
5:15 AM 42.8 °F - 41.0 °F 93% 29.92 in 10.0 mi Calm Calm - N/A   Clear
5:35 AM 42.8 °F - 41.0 °F 93% 29.91 in 7.0 mi Calm Calm - N/A   Clear
5:55 AM 42.8 °F - 41.0 °F 93% 29.91 in 7.0 mi Calm Calm - N/A   Scattered Clouds
6:15 AM 41.0 °F - 39.2 °F 93% 29.92 in 5.0 mi Calm Calm - N/A   Mostly Cloudy
6:35 AM 41.0 °F - 41.0 °F 100% 29.92 in 7.0 mi Calm Calm - N/A   Overcast
6:55 AM 41.0 °F - 41.0 °F 100% 29.92 in 7.0 mi Calm Calm - N/A   Overcast
7:15 AM 41.0 °F - 41.0 °F 100% 29.93 in 7.0 mi Calm Calm - N/A   Mostly Cloudy
7:35 AM 42.8 °F - 41.0 °F 93% 29.93 in 7.0 mi Calm Calm - N/A   Scattered Clouds
7:55 AM 41.0 °F - 41.0 °F 100% 29.93 in 5.0 mi Calm Calm - N/A   Scattered Clouds
8:15 AM 41.0 °F - 39.2 °F 93% 29.93 in 4.0 mi Calm Calm - N/A   Scattered Clouds
8:35 AM 44.6 °F - 42.8 °F 93% 29.93 in 7.0 mi Calm Calm - N/A   Overcast
8:55 AM 46.4 °F - 41.0 °F 81% 29.93 in 10.0 mi Calm Calm - N/A   Overcast
9:15 AM 46.4 °F - 41.0 °F 81% 29.93 in 10.0 mi Calm Calm - N/A   Overcast
9:35 AM 46.4 °F - 41.0 °F 81% 29.93 in 10.0 mi Calm Calm - N/A Rain Light Rain
9:55 AM 46.4 °F - 41.0 °F 81% 29.92 in 10.0 mi Calm Calm - N/A Rain Light Rain
10:15 AM 46.4 °F - 41.0 °F 81% 29.92 in 10.0 mi Calm Calm - N/A   Overcast
10:35 AM 46.4 °F - 42.8 °F 87% 29.91 in 10.0 mi Calm Calm - N/A Rain Light Rain
10:55 AM 46.4 °F - 42.8 °F 87% 29.92 in 10.0 mi Calm Calm - N/A   Overcast
11:15 AM 48.2 °F - 44.6 °F 87% 29.91 in 10.0 mi Calm Calm - N/A   Overcast
11:35 AM 50.0 °F - 44.6 °F 82% 29.91 in 10.0 mi West 4.6 mph - N/A   Overcast
11:55 AM 51.8 °F - 44.6 °F 76% 29.89 in 10.0 mi West 3.5 mph - N/A   Overcast
12:15 PM 53.6 °F - 44.6 °F 72% 29.87 in 10.0 mi Calm Calm - N/A   Overcast
12:35 PM 55.4 °F - 44.6 °F 67% 29.87 in 10.0 mi Calm Calm - N/A   Mostly Cloudy
12:55 PM 55.4 °F - 44.6 °F 67% 29.86 in 10.0 mi South 4.6 mph - N/A   Overcast
1:15 PM 55.4 °F - 44.6 °F 67% 29.85 in 10.0 mi WSW 4.6 mph - N/A   Overcast
1:35 PM 57.2 °F - 46.4 °F 67% 29.85 in 10.0 mi WSW 5.8 mph - N/A   Overcast
1:55 PM 55.4 °F - 46.4 °F 72% 29.84 in 10.0 mi SW 5.8 mph - N/A   Overcast
2:15 PM 55.4 °F - 46.4 °F 72% 29.83 in 10.0 mi West 3.5 mph - N/A   Overcast
2:35 PM 57.2 °F - 48.2 °F 72% 29.82 in 10.0 mi WSW 4.6 mph - N/A   Overcast
2:55 PM 55.4 °F - 48.2 °F 77% 29.82 in 10.0 mi WSW 4.6 mph - N/A   Overcast
3:15 PM 55.4 °F - 48.2 °F 77% 29.82 in 10.0 mi Calm Calm - N/A   Overcast
3:35 PM 55.4 °F - 48.2 °F 77% 29.82 in 10.0 mi West 3.5 mph - N/A   Overcast
3:55 PM 55.4 °F - 50.0 °F 82% 29.82 in 10.0 mi Calm Calm - N/A   Overcast
4:15 PM 55.4 °F - 50.0 °F 82% 29.81 in 10.0 mi Calm Calm - N/A   Overcast
4:35 PM 55.4 °F - 48.2 °F 77% 29.81 in 10.0 mi Calm Calm - N/A   Overcast
4:55 PM 55.4 °F - 50.0 °F 82% 29.81 in 10.0 mi Calm Calm - N/A   Overcast
5:15 PM 53.6 °F - 50.0 °F 88% 29.82 in 10.0 mi Calm Calm - N/A   Overcast
5:35 PM 53.6 °F - 50.0 °F 88% 29.82 in 10.0 mi Calm Calm - N/A   Overcast
5:55 PM 53.6 °F - 50.0 °F 88% 29.82 in 10.0 mi Calm Calm - N/A   Overcast
6:15 PM 53.6 °F - 50.0 °F 88% 29.83 in 10.0 mi Calm Calm - N/A   Overcast
6:35 PM 53.6 °F - 50.0 °F 88% 29.83 in 10.0 mi Calm Calm - N/A   Overcast
6:55 PM 53.6 °F - 50.0 °F 88% 29.83 in 10.0 mi Calm Calm - N/A   Overcast
7:15 PM 51.8 °F - 50.0 °F 94% 29.83 in 10.0 mi Calm Calm - N/A   Overcast
7:35 PM 53.6 °F - 50.0 °F 88% 29.83 in 10.0 mi Calm Calm - N/A   Overcast
7:55 PM 51.8 °F - 50.0 °F 94% 29.83 in 10.0 mi Calm Calm - N/A   Overcast
8:15 PM 51.8 °F - 50.0 °F 94% 29.84 in 7.0 mi Calm Calm - N/A Rain Rain
8:35 PM 51.8 °F - 50.0 °F 94% 29.84 in 7.0 mi Calm Calm - N/A   Drizzle
8:55 PM 51.8 °F - 50.0 °F 94% 29.85 in 5.0 mi Calm Calm - N/A Rain Rain
9:15 PM 51.8 °F - 50.0 °F 94% 29.85 in 4.0 mi Calm Calm - N/A   Light Drizzle
9:35 PM 50.0 °F - 50.0 °F 100% 29.86 in 4.0 mi Calm Calm - N/A Rain Light Rain
9:55 PM 50.0 °F - 50.0 °F 100% 29.85 in 2.5 mi Calm Calm - N/A Rain Light Rain
10:15 PM 50.0 °F - 50.0 °F 100% 29.85 in 2.0 mi Calm Calm - N/A   Overcast
10:35 PM 50.0 °F - 48.2 °F 94% 29.85 in 2.0 mi Calm Calm - N/A   Overcast
10:55 PM 50.0 °F - 48.2 °F 94% 29.86 in 2.5 mi Calm Calm - N/A   Drizzle
11:15 PM 50.0 °F - 48.2 °F 94% 29.87 in 2.5 mi Calm Calm - N/A   Drizzle
11:35 PM 50.0 °F - 50.0 °F 100% 29.86 in 1.2 mi Calm Calm - N/A Rain Rain
11:55 PM 50.0 °F - 48.2 °F 94% 29.86 in 1.5 mi Calm Calm - N/A Rain Light Rain